FW2479 Weather Reports


Display with metric or nautical units.
time (UTC)temp
F
wind
direction
speed
MPH
gust
MPH
rain 1hr
in
rain 24hr
in
rain mn
in
humidity
%
barometer
mb
20260503013413 48 333 0.0 0.0 0.00 0.03 0.03 91 1010.4
20260503012914 48 333 0.0 0.0 0.00 0.03 0.03 91 1010.4
20260503012413 48 333 0.0 0.0 0.00 0.03 0.03 91 1010.5
20260503011914 48 333 0.0 0.0 0.00 0.03 0.03 91 1010.4
20260503011413 48 333 0.0 0.0 0.00 0.03 0.03 91 1010.4
20260503010914 48 333 0.0 0.0 0.00 0.03 0.03 91 1010.4
20260503010413 48 333 0.0 0.0 0.00 0.03 0.03 91 1010.3
20260503005913 48 333 0.0 0.0 0.00 0.03 0.03 91 1010.3
20260503005417 48 333 0.0 0.0 0.00 0.03 0.03 91 1010.2
20260503004913 48 333 0.0 0.0 0.00 0.03 0.03 90 1010.2
20260503004638 48 333 0.0 0.0 0.00 0.03 0.03 91 1010.0
20260503003912 48 333 0.0 0.0 0.00 0.03 0.03 90 1010.0
20260503003410 48 333 0.0 0.0 0.00 0.03 0.03 90 1010.1
20260503002912 48 333 0.0 0.0 0.00 0.03 0.03 90 1010.0
20260503002410 49 333 0.0 0.0 0.00 0.03 0.03 90 1010.0
20260503002139 49 333 0.0 0.0 0.00 0.03 0.03 90 1010.0
20260503001409 49 333 0.0 0.0 0.00 0.03 0.03 90 1010.1
20260503000910 49 333 0.0 0.0 0.00 0.03 0.03 90 1010.1
20260503000408 49 333 0.0 0.0 0.00 0.03 0.03 90 1010.0
20260502235908 49 333 0.0 0.0 0.00 0.03 0.03 90 1010.0
20260502235407 49 333 0.0 0.0 0.00 0.03 0.03 90 1009.9
20260502234909 49 333 0.0 0.0 0.00 0.03 0.03 90 1010.0
20260502234408 49 333 0.0 0.0 0.00 0.03 0.03 90 1010.0
20260502233907 49 333 0.0 0.0 0.00 0.03 0.03 90 1010.1
20260502233406 49 333 0.0 0.0 0.00 0.03 0.03 90 1010.0
20260502232907 49 333 0.0 0.0 0.00 0.03 0.03 90 1010.0
20260502232406 49 333 0.0 0.0 0.00 0.03 0.03 89 1010.0
20260502231908 49 333 0.0 0.0 0.00 0.03 0.03 89 1009.9
20260502231625 49 333 0.0 0.0 0.00 0.03 0.03 89 1010.0
20260502231129 49 333 0.0 0.0 0.00 0.03 0.03 89 1010.0
20260502230403 49 333 0.0 0.0 0.01 0.03 0.03 89 1010.0
20260502225908 50 333 0.0 0.0 0.01 0.02 0.03 89 1010.0
20260502225404 50 333 0.0 0.0 0.01 0.02 0.03 89 1009.9
20260502224904 50 333 0.0 0.0 0.01 0.02 0.03 89 1009.9
20260502224403 49 333 0.0 0.0 0.01 0.02 0.03 88 1009.8
20260502223904 50 333 0.0 0.0 0.01 0.02 0.03 87 1009.7
20260502223624 50 333 0.0 0.0 0.01 0.02 0.03 87 1009.7
20260502222902 0 0.0 0.0 0.01 0.02 0.03 1009.8
20260502222403 50 333 0.0 0.0 0.01 0.02 0.03 87 1009.9
20260502221910 50 333 0.0 0.0 0.01 0.02 0.03 87 1010.0
20260502221408 50 333 0.0 0.0 0.01 0.02 0.03 87 1010.0
20260502220903 50 333 0.0 0.0 0.01 0.02 0.03 86 1010.0
20260502220403 50 333 0.0 0.0 0.00 0.02 0.02 86 1010.2
20260502215908 50 333 0.0 0.0 0.00 0.02 0.02 85 1010.1
20260502215403 50 296 0.0 0.0 0.00 0.02 0.02 85 1010.1
20260502214904 50 296 0.0 0.0 0.00 0.02 0.02 84 1010.1
20260502214622 51 296 0.0 2.0 0.00 0.02 0.02 83 1010.0
20260502213903 51 295 0.0 2.0 0.00 0.02 0.02 82 1010.1
20260502213628 51 309 0.0 1.0 0.00 0.02 0.02 81 1010.0
20260502212904 52 293 0.0 1.0 0.00 0.02 0.02 80 1010.1
20260502212403 53 286 0.0 0.0 0.00 0.02 0.02 80 1010.1
20260502211904 53 305 0.0 0.0 0.00 0.02 0.02 80 1010.0
20260502211403 53 305 0.0 0.0 0.00 0.02 0.02 79 1010.0
20260502210904 53 131 0.0 0.0 0.00 0.02 0.02 78 1009.8
20260502210403 54 128 0.0 0.0 0.00 0.02 0.02 78 1009.8
20260502205903 0 0.0 0.0 0.00 0.02 0.02 1009.8
20260502205405 0 0.0 0.0 0.00 0.02 0.02 1009.7
20260502204908 0 231 0.0 0.0 0.00 0.02 0.02 1009.7
20260502204404 54 231 0.0 0.0 0.00 0.02 0.02 76 1009.7
20260502203905 54 230 0.0 0.0 0.00 0.02 0.02 76 1009.7
20260502203405 54 206 0.0 0.0 0.00 0.02 0.02 77 1009.8
20260502202904 54 65 0.0 0.0 0.00 0.02 0.02 76 1009.7
20260502202403 54 92 0.0 0.0 0.00 0.02 0.02 76 1009.8
20260502201904 54 149 0.0 0.0 0.00 0.02 0.02 75 1009.9
20260502201403 54 141 0.0 1.0 0.00 0.02 0.02 74 1009.8
20260502201347 55 210 0.0 3.0 0.00 0.02 0.02 73 1010.0
20260502200405 55 258 0.0 3.0 0.00 0.02 0.02 74 1009.9
20260502195904 55 221 0.0 0.0 0.00 0.02 0.02 74 1009.7
20260502195403 55 118 0.0 0.0 0.00 0.02 0.02 73 1009.9
20260502194903 54 173 0.0 0.0 0.00 0.02 0.02 73 1010.0
20260502194404 54 173 0.0 0.0 0.00 0.02 0.02 73 1010.1
20260502193903 55 165 0.0 0.0 0.00 0.02 0.02 74 1010.1
20260502193403 55 140 0.0 0.0 0.00 0.02 0.02 74 1010.3
20260502192904 55 252 0.0 0.0 0.00 0.02 0.02 76 1010.3
20260502192404 55 252 0.0 0.0 0.00 0.02 0.02 75 1010.4
20260502191904 54 94 0.0 0.0 0.00 0.02 0.02 78 1010.5
20260502191404 54 94 0.0 2.0 0.00 0.02 0.02 78 1010.5
20260502190903 53 326 0.0 2.0 0.00 0.02 0.02 76 1010.6
20260502190404 53 302 0.0 2.0 0.00 0.02 0.02 78 1010.6
20260502185903 53 216 0.0 1.0 0.00 0.02 0.02 78 1010.7
20260502185629 52 219 0.0 1.0 0.00 0.02 0.02 80 1010.7
20260502185125 52 209 0.0 1.0 0.00 0.02 0.02 82 1010.6
20260502184403 52 228 0.0 1.0 0.00 0.02 0.02 85 1010.5
20260502183903 51 212 0.0 0.0 0.00 0.02 0.02 86 1010.6
20260502183405 51 212 0.0 2.0 0.00 0.02 0.02 86 1010.7
20260502182905 50 202 0.0 2.0 0.01 0.02 0.02 87 1010.6
20260502182403 50 347 0.0 0.0 0.01 0.02 0.02 87 1010.6
20260502182123 50 212 0.0 1.0 0.01 0.02 0.02 87 1010.7
20260502181403 50 212 0.0 1.0 0.02 0.02 0.02 87 1010.8
20260502180904 50 176 0.0 1.0 0.02 0.02 0.02 87 1010.8
20260502180403 50 147 0.0 1.0 0.02 0.02 0.02 87 1010.7
20260502163905 53 207 0.0 1.0 0.00 0.00 0.00 73 1011.4
20260502163404 53 207 0.0 0.0 0.00 0.00 0.00 74 1011.2
20260502162903 53 207 0.0 0.0 0.00 0.00 0.00 66 1011.2
20260502162403 54 206 0.0 6.0 0.00 0.00 0.00 66 1011.2
20260502162127 54 185 0.0 6.0 0.00 0.00 0.00 65 1011.2
20260502161402 54 121 0.0 1.0 0.00 0.00 0.00 70 1011.1
20260502160903 54 305 0.0 0.0 0.00 0.00 0.00 73 1011.1
20260502160404 0 0.0 0.0 0.00 0.00 0.00 1011.2
20260502152327 0 0.0 0.0 0.00 0.00 0.00 1011.5
20260502151333 0 0.0 0.0 0.00 0.00 0.00 1011.7
20260502150834 0 0.0 0.0 0.00 0.00 0.00 1012.0
20260502150332 0 0.0 0.0 0.00 0.00 0.00 1011.6
20260502130305 49 336 0.0 1.0 0.00 0.00 0.00 85 1012.2
20260502123524 50 262 0.0 1.0 0.00 0.00 0.00 81 1012.8
20260502122802 50 305 0.0 1.0 0.00 0.00 0.00 81 1012.7
20260502122305 50 305 0.0 1.0 0.00 0.00 0.00 81 1012.5
20260502121803 50 300 0.0 1.0 0.00 0.00 0.00 81 1012.5
20260502121301 50 299 0.0 1.0 0.00 0.00 0.00 81 1012.3
20260502120803 50 269 0.0 0.0 0.00 0.00 0.00 81 1012.2
20260502120524 50 269 0.0 0.0 0.00 0.00 0.00 81 1011.9
20260502115801 50 269 0.0 0.0 0.00 0.00 0.00 81 1012.1
20260502115300 50 266 0.0 1.0 0.00 0.00 0.00 81 1011.9
20260502114801 49 266 0.0 4.0 0.00 0.00 0.00 81 1011.7
20260502114522 49 282 0.0 4.0 0.00 0.00 0.00 81 1011.7
20260502113801 49 285 0.0 0.0 0.00 0.00 0.00 82 1011.8
20260502113259 48 285 0.0 0.0 0.00 0.00 0.00 82 1011.5
20260502112800 48 283 0.0 0.0 0.00 0.00 0.00 82 1011.7
20260502112259 48 283 0.0 0.0 0.00 0.00 0.00 81 1011.6
20260502111802 48 283 0.0 0.0 0.00 0.00 0.00 81 1011.7
20260502111300 48 286 0.0 0.0 0.00 0.00 0.00 82 1011.6
20260502110800 48 286 0.0 0.0 0.00 0.00 0.00 82 1011.5
20260502110259 48 286 0.0 0.0 0.00 0.00 0.00 82 1011.8
20260502105801 48 286 0.0 0.0 0.00 0.00 0.00 82 1011.8
20260502105259 48 286 0.0 0.0 0.00 0.00 0.00 82 1011.5
20260502105026 0 0.0 0.0 0.00 0.00 0.00 1011.6
20260502104256 48 286 0.0 0.0 0.00 0.00 0.00 83 1011.5
20260502103757 48 286 0.0 0.0 0.00 0.00 0.00 83 1011.4
20260502103255 48 289 0.0 0.0 0.00 0.00 0.00 83 1011.4
20260502102755 48 295 0.0 0.0 0.00 0.00 0.00 83 1011.4
20260502102254 48 323 0.0 0.0 0.00 0.00 0.00 83 1011.6
20260502101757 48 323 0.0 0.0 0.00 0.00 0.00 83 1011.2
20260502101255 47 323 0.0 0.0 0.00 0.00 0.00 83 1011.1
20260502100756 47 323 0.0 0.0 0.00 0.00 0.00 83 1011.2
20260502100515 47 323 0.0 0.0 0.00 0.00 0.00 83 1011.1
20260502091253 48 323 0.0 0.0 0.00 0.00 0.00 83 1011.1
20260502090755 48 323 0.0 0.0 0.00 0.00 0.00 82 1010.9
20260502090253 48 323 0.0 0.0 0.00 0.00 0.00 83 1011.0
20260502071246 49 327 0.0 0.0 0.00 0.00 0.00 74 1011.3
20260502071005 49 327 0.0 0.0 0.00 0.00 0.00 74 1011.2
20260502070246 49 327 0.0 0.0 0.00 0.00 0.00 73 1011.1
20260502065747 50 327 0.0 0.0 0.00 0.00 0.00 73 1011.2
20260502065245 50 329 0.0 0.0 0.00 0.00 0.00 73 1011.2
20260502064745 50 329 0.0 0.0 0.00 0.00 0.00 73 1011.4
20260502064247 50 329 0.0 0.0 0.00 0.00 0.00 72 1011.4
20260502063746 50 330 0.0 2.0 0.00 0.00 0.00 72 1011.4
20260502063245 50 319 0.0 2.0 0.00 0.00 0.00 72 1011.4
20260502062747 50 250 0.0 0.0 0.00 0.00 0.00 72 1011.4
20260502062244 49 234 0.0 0.0 0.00 0.00 0.00 72 1011.4
20260502061745 50 234 0.0 0.0 0.00 0.00 0.00 72 1011.4
20260502061244 50 234 0.0 1.0 0.00 0.00 0.00 72 1011.3
20260502060746 50 234 0.0 1.0 0.00 0.00 0.00 72 1011.3
20260502060243 50 234 0.0 0.0 0.00 0.00 0.00 71 1011.3
20260502060000 50 234 0.0 0.0 0.00 0.00 0.00 71 1011.4
20260502055241 50 234 0.0 0.0 0.00 0.00 0.00 71 1011.3
20260502054741 50 234 0.0 0.0 0.00 0.00 0.00 70 1011.3
20260502054242 50 234 0.0 0.0 0.00 0.00 0.00 71 1011.4
20260502053740 50 234 0.0 0.0 0.00 0.00 0.00 70 1011.4
20260502053727 50 234 0.0 1.0 0.00 0.00 0.00 70 1011.5
20260502053216 50 234 0.0 1.0 0.00 0.00 0.00 69 1011.5
20260502052239 50 235 0.0 0.0 0.00 0.00 0.00 69 1011.4
20260502051739 50 235 0.0 0.0 0.00 0.00 0.00 68 1011.4
20260502051238 50 235 0.0 0.0 0.00 0.00 0.00 68 1011.4
20260502050956 50 237 0.0 0.0 0.00 0.00 0.00 68 1011.5
20260502050455 50 235 0.0 0.0 0.00 0.00 0.00 68 1011.6
20260502045956 50 237 0.0 0.0 0.00 0.00 0.00 67 1011.4
20260502045238 50 234 0.0 0.0 0.00 0.00 0.00 67 1011.4
20260502045224 50 234 0.0 0.0 0.00 0.00 0.00 67 1011.4
20260502044239 50 234 0.0 0.0 0.00 0.00 0.00 67 1011.5
20260502043737 50 234 0.0 0.0 0.00 0.00 0.00 67 1011.5
20260502043236 50 234 0.0 0.0 0.00 0.00 0.00 66 1011.6
20260502042735 50 234 0.0 0.0 0.00 0.00 0.00 66 1011.7
20260502042237 50 234 0.0 0.0 0.00 0.00 0.00 66 1011.7
20260502041736 50 234 0.0 0.0 0.00 0.00 0.00 65 1011.6
20260502041235 50 234 0.0 0.0 0.00 0.00 0.00 64 1011.6
20260502040736 50 234 0.0 0.0 0.00 0.00 0.00 64 1011.7
20260502040234 50 234 0.0 0.0 0.00 0.00 0.00 64 1011.6
20260502035735 50 234 0.0 0.0 0.00 0.00 0.00 64 1011.6
20260502035234 50 234 0.0 0.0 0.00 0.00 0.00 64 1011.4
20260502034735 50 234 0.0 0.0 0.00 0.00 0.00 63 1011.5
20260502034458 50 234 0.0 0.0 0.00 0.00 0.00 63 1011.6
20260502033734 50 234 0.0 0.0 0.00 0.00 0.00 63 1011.6
20260502033234 50 234 0.0 0.0 0.00 0.00 0.00 63 1011.7
20260502032737 50 234 0.0 0.0 0.00 0.00 0.00 62 1011.6
20260502032451 50 234 0.0 0.0 0.00 0.00 0.00 62 1011.7
20260502031733 50 234 0.0 0.0 0.00 0.00 0.00 61 1011.7
20260502031234 51 234 0.0 0.0 0.00 0.00 0.00 61 1011.6
20260502030735 51 234 0.0 0.0 0.00 0.00 0.00 59 1011.5
20260502030235 51 234 0.0 0.0 0.00 0.00 0.00 59 1011.5
20260502025733 51 234 0.0 0.0 0.00 0.00 0.00 58 1011.5
20260502025232 51 234 0.0 0.0 0.00 0.00 0.00 58 1011.4
20260502024733 51 234 0.0 0.0 0.00 0.00 0.00 58 1011.4
20260502024503 51 234 0.0 0.0 0.00 0.00 0.00 58 1011.5
20260502023952 51 281 0.0 2.0 0.00 0.00 0.00 59 1011.6
20260502023233 50 281 0.0 2.0 0.00 0.00 0.00 61 1011.5
20260502022733 49 189 0.0 0.0 0.00 0.00 0.00 61 1011.6
20260502022233 48 303 0.0 0.0 0.00 0.00 0.00 63 1011.4
20260502021732 49 303 0.0 0.0 0.00 0.00 0.00 62 1011.4
20260502021237 49 303 0.0 0.0 0.00 0.00 0.00 62 1011.2
20260502020731 49 303 0.0 0.0 0.00 0.00 0.00 62 1011.2
20260502020232 49 303 0.0 0.0 0.00 0.00 0.00 59 1011.1
20260502015729 49 303 0.0 0.0 0.00 0.00 0.00 59 1011.1
20260502015230 50 303 0.0 0.0 0.00 0.00 0.00 59 1011.1
20260502014730 50 303 0.0 0.0 0.00 0.00 0.00 59 1011.1
20260502014229 50 303 0.0 0.0 0.00 0.00 0.00 58 1011.1
20260502013728 50 303 0.0 0.0 0.00 0.00 0.00 57 1011.1